Location: Dobrzeń Wielki
(50.7693°N, 17.8414°E)
Time: 17:53:47
(UTC+01:00)

ISS - Visible Passes

Search period start: 16 January 2019 00:00
Search period end: 26 January 2019 00:00
Orbit: 404 x 407 km, 51.6° (Epoch: 17 January)

Date Brightness Start Highest point End Pass type
(mag) Time Alt. Az. Time Alt. Az. Time Alt. Az.
23 Jan -1.7 18:36:42 10° SSW 18:38:06 18° S 18:38:06 18° S visible
24 Jan -1.8 17:45:38 10° S 17:47:37 15° SE 17:48:29 14° ESE visible
24 Jan -1.0 19:20:24 10° WSW 19:21:11 16° SW 19:21:11 16° SW visible
25 Jan -3.1 18:28:37 10° SW 18:31:29 40° SSE 18:31:29 40° SSE visible
